Satellite-Ground Cal/Val Site Overpasses Predictions

Prediction of Satellite NPP Overpassing Cal/Val Site: Antarctic Dome C

Ground Cal/Val Site Location: Latitude: -75.10, Longitude: 123.35; Satellite-Ground Site NADIR distance within 100 km.

Table of predicted overpasses for the next 14.0 days since TLE Epoch: 11/13/2021
Interval Starting Time Ending Time Minimum Distance Time Minimum Distance (km)
1 11/13/2021 15:02:51 11/13/2021 15:03:13 11/13/2021 15:03:02 66.14
2 11/14/2021 14:44:00 11/14/2021 14:44:26 11/14/2021 14:44:13 43.21
3 11/15/2021 07:45:43 11/15/2021 07:46:03 11/15/2021 07:45:53 73.86
4 11/16/2021 07:26:52 11/16/2021 07:27:19 11/16/2021 07:27:06 33.76
5 11/19/2021 14:50:21 11/19/2021 14:50:51 11/19/2021 14:50:36 7.13
6 11/21/2021 07:33:13 11/21/2021 07:33:42 11/21/2021 07:33:28 4.05
7 11/24/2021 14:56:45 11/24/2021 14:57:13 11/24/2021 14:56:59 29.72
8 11/25/2021 14:38:01 11/25/2021 14:38:20 11/25/2021 14:38:11 77.60
